Retour au catalogue

SL-8 R/B

ActifPO
NORAD 13034·ROCKET BODY·🇷🇺 Russia

Lancé Jan 14, 1982 depuis Plesetsk Cosmodrome

Loading…

Prochains Passages (prochaines 24 heures)

TLE

FraisSource: Space-Track

Époque: Sep 14, 2026, 09:11 UTC

1 13034U 82003B   26257.38274880 -.00000036  00000-0 -53666-4 0  9997
2 13034  82.9346  52.5189 0032986 136.1168 250.3386 13.75539970241260

Suivez SL-8 R/B en temps réel avec AllMySat

Download on the App Store